Location: Newark
(33.4453°N, 112.0669°W)
Time: 12:13:27
(UTC+00:00)

Vanguard 1 - All Passes

Search period start: 17 February 2020 00:00
Search period end: 27 February 2020 00:00
Orbit: 650 x 3833 km, 34.2° (Epoch: 16 February)

Date Brightness Start Highest point End Pass type
(mag) Time Alt. Az. Time Alt. Az. Time Alt. Az.
17 Feb - 13:04:46 10° S 13:21:00 24° SE 13:34:17 10° E visible
17 Feb - 15:24:58 10° SW 15:46:04 54° SSE 15:59:08 10° E daylight
17 Feb - 17:51:52 10° WSW 18:10:15 86° SSE 18:19:50 10° E daylight
17 Feb - 20:20:17 10° W 20:32:53 89° N 20:39:31 10° E daylight
17 Feb - 22:46:09 10° W 22:53:19 38° SSW 22:58:00 10° SE daylight
18 Feb - 13:23:34 10° SSW 13:42:19 32° SE 13:56:58 10° E visible
18 Feb - 15:45:51 10° SW 16:07:26 64° SSE 16:20:19 10° ENE daylight
18 Feb - 18:13:45 10° W 18:31:35 89° N 18:40:48 10° E daylight
18 Feb - 20:42:01 10° W 20:54:00 83° SSW 21:00:23 10° ESE daylight
18 Feb - 23:07:54 10° W 23:13:52 26° SW 23:18:05 10° SSE daylight
19 Feb - 11:31:00 10° SSE 11:38:36 12° SE 11:45:55 10° ESE visible
19 Feb - 13:43:06 10° SSW 14:03:37 40° SE 14:18:59 10° E visible
19 Feb - 16:07:05 10° WSW 16:28:49 73° SSE 16:41:25 10° ENE daylight
19 Feb - 18:35:43 10° W 18:52:55 86° N 19:01:45 10° E daylight
19 Feb - 21:03:41 10° WNW 21:15:00 71° SSW 21:21:08 10° ESE daylight
19 Feb - 23:30:08 10° W 23:34:18 17° SW 23:37:36 10° S daylight
20 Feb - 11:46:08 10° S 11:59:50 19° SE 12:12:32 10° E visible
20 Feb - 14:03:10 10° SW 14:24:57 49° SSE 14:40:37 10° E daylight
20 Feb - 16:28:37 10° WSW 16:50:14 81° SSE 17:02:27 10° ENE daylight
20 Feb - 18:57:42 10° W 19:14:14 87° N 19:22:42 10° E daylight
20 Feb - 21:25:20 10° WNW 21:35:52 57° SSW 21:41:45 10° SE daylight
21 Feb - 12:03:57 10° S 12:20:59 26° SE 12:36:19 10° E visible
21 Feb - 14:23:41 10° SW 14:46:18 58° SSE 15:02:01 10° ENE daylight
21 Feb - 16:50:22 10° WSW 17:11:41 87° SSE 17:23:28 10° E daylight
21 Feb - 19:19:39 10° W 19:35:31 90° SSW 19:43:38 10° E daylight
21 Feb - 21:47:02 10° W 21:56:33 43° SW 22:02:10 10° SE daylight
22 Feb - 12:22:53 10° SSW 12:42:07 34° SE 12:58:59 10° E visible
22 Feb - 14:44:34 10° SW 15:07:43 67° SSE 15:23:16 10° ENE daylight
22 Feb - 17:12:18 10° W 17:33:09 89° N 17:44:30 10° E daylight
22 Feb - 19:41:32 10° W 19:56:43 83° SSW 20:04:30 10° ESE daylight
22 Feb - 22:08:54 10° W 22:17:04 30° SW 22:22:16 10° SSE daylight
23 Feb - 10:30:30 10° SSE 10:38:47 13° SE 10:47:09 10° ESE visible
23 Feb - 12:42:28 10° SSW 13:03:17 43° SE 13:21:04 10° E visible
23 Feb - 15:05:46 10° WSW 15:29:11 75° SSE 15:44:27 10° ENE daylight
23 Feb - 17:34:19 10° W 17:54:38 87° N 18:05:32 10° E daylight
23 Feb - 20:03:21 10° WNW 20:17:46 72° SSW 20:25:17 10° ESE daylight
23 Feb - 22:31:10 10° W 22:37:26 20° SW 22:41:53 10° S daylight
24 Feb - 10:46:06 10° S 10:59:45 20° SE 11:13:33 10° E visible
24 Feb - 13:02:34 10° SW 13:24:31 51° SE 13:42:46 10° ENE visible
24 Feb - 15:27:15 10° WSW 15:50:43 82° SSE 16:05:34 10° ENE daylight
24 Feb - 17:56:22 10° W 18:16:06 87° N 18:26:32 10° E daylight
24 Feb - 20:25:09 10° WNW 20:38:40 60° SSW 20:45:54 10° SE daylight
24 Feb - 22:54:33 10° WSW 22:57:40 12° SW 23:00:18 10° SSW daylight
25 Feb - 11:04:05 10° S 11:20:39 27° SE 11:37:24 10° E visible
25 Feb - 13:23:03 10° SW 13:45:51 60° SSE 14:04:15 10° ENE visible
25 Feb - 15:48:58 10° WSW 16:12:19 88° SSE 16:26:42 10° E daylight
25 Feb - 18:18:24 10° W 18:37:30 89° SSW 18:47:30 10° ESE daylight
25 Feb - 20:46:59 10° WNW 20:59:23 47° SW 21:06:18 10° SE daylight
26 Feb - 11:23:05 10° SSW 11:41:35 35° SE 12:00:09 10° E visible
26 Feb - 13:43:53 10° SW 14:07:15 69° SSE 14:25:36 10° ENE daylight
26 Feb - 16:10:51 10° W 16:33:56 89° N 16:47:48 10° E daylight
26 Feb - 18:40:22 10° W 18:58:48 83° SSW 19:08:25 10° ESE daylight
26 Feb - 21:08:58 10° W 21:19:54 35° SW 21:26:26 10° SSE daylight
